KF7SHY-14 Weather Reports


time (UTC)temp
C
wind
direction
speed
KPH
gust
KPH
rain 1hr
cm
rain 24hr
cm
rain mn
cm
humidity
%
barometer
mb
20260505165343 -17 288 3.2 8.0 0.00 0.00 0.00 1016.0
20260505164344 -17 277 3.2 8.0 0.00 0.00 0.00 1015.9
20260505163343 -17 249 1.6 6.4 0.00 0.00 0.00 1015.8
20260505162343 -17 255 1.6 4.8 0.00 0.00 0.00 1015.8
20260505161407 -17 281 3.2 6.4 0.00 0.00 0.00 1015.8
20260505153341 -17 264 3.2 8.0 0.00 0.00 0.00 1015.8
20260505152341 -17 275 3.2 8.0 0.00 0.00 0.00 1015.6
20260505151406 -17 304 3.2 8.0 0.00 0.00 0.00 1015.5
20260505150341 -17 251 3.2 6.4 0.00 0.00 0.00 1015.5
20260505140340 -17 299 1.6 3.2 0.00 0.00 0.00 1015.1
20260505124341 -17 299 1.6 3.2 0.00 0.00 0.00 1014.7
20260505123341 -17 299 1.6 4.8 0.00 0.00 0.00 1014.6
20260505122337 -17 299 1.6 3.2 0.00 0.00 0.00 1014.5
20260505121324 -17 299 1.6 4.8 0.00 0.00 0.00 1014.5
20260505120244 -17 280 1.6 4.8 0.00 0.00 0.00 1014.4
20260505115243 -17 290 3.2 8.0 0.00 0.00 0.00 1014.5
20260505114243 -17 296 4.8 9.7 0.00 0.00 0.00 1014.4
20260505113243 -17 303 3.2 8.0 0.00 0.00 0.00 1014.4
20260505112244 -17 312 3.2 11.3 0.00 0.00 0.00 1014.4
20260505111309 -17 311 4.8 9.7 0.00 0.00 0.00 1014.5
20260505110244 -17 297 4.8 12.9 0.00 0.00 0.00 1014.5
20260505101310 -17 287 8.0 14.5 0.00 0.00 0.00 1014.1
20260505100244 -17 283 9.7 17.7 0.00 0.00 0.00 1013.9
20260505095241 -17 258 9.7 14.5 0.00 0.00 0.00 1013.9
20260505094244 -17 270 8.0 14.5 0.00 0.00 0.00 1013.9
20260505093244 -17 273 9.7 16.1 0.00 0.00 0.00 1013.9
20260505092244 -17 265 11.3 19.3 0.00 0.00 0.00 1013.8
20260505091310 -17 290 11.3 17.7 0.00 0.00 0.00 1013.6
20260505085243 -17 277 12.9 20.9 0.00 0.00 0.00 1013.6
20260505084243 -17 274 11.3 17.7 0.00 0.00 0.00 1013.6
20260505083244 -17 259 11.3 17.7 0.00 0.00 0.00 1013.6
20260505082244 -17 244 11.3 16.1 0.00 0.00 0.00 1013.6
20260505081309 -17 255 11.3 17.7 0.00 0.00 0.00 1013.5
20260505080244 -17 279 11.3 20.9 0.00 0.00 0.00 1013.5
20260505075243 -17 269 12.9 20.9 0.00 0.00 0.00 1013.5
20260505074244 -17 278 12.9 22.5 0.00 0.00 0.00 1013.4
20260505073246 -17 283 12.9 20.9 0.00 0.00 0.00 1013.4
20260505072244 -17 280 12.9 19.3 0.00 0.00 0.00 1013.3
20260505071323 -17 274 11.3 22.5 0.00 0.00 0.00 1013.3
20260505070244 -17 267 12.9 22.5 0.00 0.00 0.00 1013.1
20260505065244 -17 291 12.9 22.5 0.00 0.00 0.00 1013.2
20260505063241 -17 271 12.9 22.5 0.00 0.00 0.00 1013.0
20260505061307 -17 266 12.9 19.3 0.00 0.00 0.00 1012.7
20260505060244 -17 273 12.9 19.3 0.00 0.00 0.00 1012.7
20260505055241 -17 292 12.9 19.3 0.00 0.00 0.00 1012.7
20260505054244 -17 281 11.3 20.9 0.00 0.00 0.00 1012.7
20260505053242 -17 271 12.9 17.7 0.00 0.00 0.00 1012.8
20260505052244 -17 279 12.9 19.3 0.00 0.00 0.00 1012.7
20260505051309 -17 285 14.5 20.9 0.00 0.00 0.00 1012.7
20260505050244 -17 277 12.9 19.3 0.00 0.00 0.00 1012.9
20260505041359 -17 272 12.9 25.7 0.00 0.00 0.00 1012.6
20260505040339 -17 266 16.1 29.0 0.00 0.00 0.00 1012.4
20260505035341 -17 291 16.1 29.0 0.00 0.00 0.00 1012.3
20260505034341 -17 285 16.1 33.8 0.00 0.00 0.00 1012.1
20260505033343 -17 289 19.3 29.0 0.00 0.00 0.00 1012.1
20260505032340 -17 274 17.7 32.2 0.00 0.00 0.00 1012.1
20260505031410 -17 264 14.5 25.7 0.00 0.00 0.00 1012.0
20260505030344 -17 278 14.5 27.4 0.00 0.00 0.00 1011.9
20260505025346 -17 279 14.5 29.0 0.00 0.00 0.00 1011.8
20260505024347 -17 265 14.5 29.0 0.00 0.00 0.00 1011.8
20260505023347 -17 288 14.5 32.2 0.00 0.00 0.00 1011.7
20260505022344 -17 291 16.1 29.0 0.00 0.00 0.00 1011.6
20260505021409 -17 283 14.5 29.0 0.00 0.00 0.00 1011.5
20260505020345 -17 286 16.1 32.2 0.00 0.00 0.00 1011.5
20260505015344 -17 301 16.1 29.0 0.00 0.00 0.00 1011.6
20260505014441 -17 293 17.7 29.0 0.00 0.00 0.00 1011.5
20260505013344 -17 289 19.3 30.6 0.00 0.00 0.00 1011.6
20260505010346 -17 283 14.5 29.0 0.00 0.00 0.00 1011.6
20260505005346 -17 279 16.1 32.2 0.00 0.00 0.00 1011.6
20260505004345 -17 286 16.1 33.8 0.00 0.00 0.00 1011.6
20260505003346 -17 280 16.1 25.7 0.00 0.00 0.00 1011.6
20260505002411 -17 311 14.5 29.0 0.00 0.00 0.00 1011.7
20260504235345 -17 286 20.9 29.0 0.00 0.00 0.00 1011.6
20260504233346 -17 294 14.5 29.0 0.00 0.00 0.00 1011.6
20260504232345 -17 294 16.1 29.0 0.00 0.00 0.00 1011.6
20260504230347 -17 276 14.5 24.1 0.00 0.00 0.00 1011.9
20260504225400 -17 281 12.9 22.5 0.00 0.00 0.00 1012.0
20260504224348 -17 278 12.9 19.3 0.00 0.00 0.00 1012.1
20260504223344 -17 279 12.9 20.9 0.00 0.00 0.00 1011.9
20260504222347 -17 275 12.9 20.9 0.00 0.00 0.00 1012.1
20260504221409 -17 291 14.5 22.5 0.00 0.00 0.00 1012.2
20260504220347 -17 281 12.9 24.1 0.00 0.00 0.00 1012.3
20260504215343 -17 278 14.5 25.7 0.00 0.00 0.00 1012.2
20260504214346 -17 274 17.7 29.0 0.00 0.00 0.00 1012.3
20260504213343 -17 274 12.9 24.1 0.00 0.00 0.00 1012.3
20260504212347 -17 272 12.9 22.5 0.00 0.00 0.00 1012.4
20260504211410 -17 262 12.9 22.5 0.00 0.00 0.00 1012.5
20260504205344 -17 247 14.5 25.7 0.00 0.00 0.00 1012.5
20260504204344 -17 261 16.1 22.5 0.00 0.00 0.00 1012.6
20260504203345 -17 259 12.9 22.5 0.00 0.00 0.00 1012.7
20260504202345 -17 265 12.9 27.4 0.00 0.00 0.00 1012.7
20260504201409 -17 278 12.9 27.4 0.00 0.00 0.00 1012.7
20260504200344 -17 260 14.5 25.7 0.00 0.00 0.00 1012.7
20260504195344 -17 255 14.5 24.1 0.00 0.00 0.00 1012.8
20260504194345 -17 228 12.9 24.1 0.00 0.00 0.00 1012.8
20260504193344 -17 239 12.9 25.7 0.00 0.00 0.00 1012.8
20260504192344 -17 252 12.9 24.1 0.00 0.00 0.00 1012.8
20260504191412 -17 263 11.3 25.7 0.00 0.00 0.00 1012.9
20260504190344 -17 249 12.9 24.1 0.00 0.00 0.00 1012.9
20260504185344 -17 264 12.9 27.4 0.00 0.00 0.00 1012.8
20260504184344 -17 258 12.9 24.1 0.00 0.00 0.00 1013.0
20260504183344 -17 240 11.3 22.5 0.00 0.00 0.00 1012.9
20260504182344 -17 252 12.9 22.5 0.00 0.00 0.00 1012.9
20260504181411 -17 250 14.5 20.9 0.00 0.00 0.00 1012.9
20260504180344 -17 253 12.9 20.9 0.00 0.00 0.00 1012.9
20260504175344 -17 251 12.9 20.9 0.00 0.00 0.00 1012.9
20260504174344 -17 279 12.9 19.3 0.00 0.00 0.00 1012.9
20260504173344 -17 262 11.3 19.3 0.00 0.00 0.00 1012.8
20260504172344 -17 251 11.3 16.1 0.00 0.00 0.00 1012.7
20260504171409 -17 253 9.7 14.5 0.00 0.00 0.00 1012.8
20260504170344 -17 253 6.4 12.9 0.00 0.00 0.00 1012.8